[[{"header":{"parameterUnit":"m.s-1","parameterCategory":1,"la1":30.2991,"la2":30.254,"lo1":-89.0895,"lo2":-89.0444,"dy":0.0017,"dx":0.0017,"nx":28,"ny":28,"refTime":"2025-01-28T03:00:00:Z","depth":0,"parameterNumber":2,"parameterNumberName":"U-component_of_WINDS"},"data":[0,0,0,0,0,0,0,0,0,0,0,0,0,0,0,0,0,0,0,0,0,0,0,0,0,0,0,0,0,0,0,0,0,0,0,0,0,0,0,0,0,0,0,0,0,0,0,0,0,0,0,0,0,0,0,0,0,0,-0.5467,-0.5467,0,-0.5443,-0.5443,-0.5443,-0.5417,-0.5416,-0.5416,-0.5416,-0.5393,-0.5392,-0.5392,0,0,0,0,0,0,0,0,0,0,0,0,0,-0.5489,-0.5488,-0.5467,-0.5467,-0.5466,-0.5444,-0.5443,-0.5443,-0.5417,-0.5416,-0.5416,-0.5415,-0.5393,-0.5392,-0.5392,0,0,0,0,0,0,0,0,0,0,0,0,0,-0.5474,-0.5488,-0.5467,-0.545,-0.5449,-0.5444,-0.5443,-0.5443,-0.5417,-0.5416,-0.5416,-0.5415,-0.5393,-0.5392,-0.5392,-0.5401,0,0,-0.5391,-0.5391,0,0,0,0,0,0,0,0,-0.5475,-0.5473,-0.5453,-0.5452,-0.545,-0.5432,-0.5442,-0.5429,-0.5417,-0.5429,-0.5416,-0.5415,-0.5406,-0.5405,-0.5402,-0.54,-0.5399,-0.5391,-0.5391,-0.539,-0.539,0,0,0,0,0,0,0,-0.5476,-0.5474,-0.5458,-0.5453,-0.5451,-0.5444,-0.5441,-0.544,-0.5421,-0.5428,-0.5426,-0.5423,-0.5405,-0.5402,-0.5401,-0.5399,-0.5391,-0.5391,-0.539,-0.539,-0.5403,-0.5403,0,0,0,0,0,0,-0.5479,-0.5475,-0.5458,-0.5457,-0.5461,-0.5444,-0.5441,-0.5439,-0.5421,-0.5418,-0.5424,-0.5422,-0.5403,-0.5401,-0.54,-0.5409,-0.539,-0.539,-0.539,-0.5402,-0.5403,-0.5403,0,0,0,0,0,0,-0.548,-0.5478,-0.5459,-0.5465,-0.5462,-0.5445,-0.5442,-0.5438,-0.5435,-0.5418,-0.5415,-0.5424,-0.5403,-0.5401,-0.5401,-0.5408,-0.539,-0.539,-0.5402,-0.5402,-0.5403,-0.5428,0,0,0,0,0,0,-0.548,-0.5478,-0.5482,-0.5466,-0.5462,-0.5461,-0.5442,-0.5438,-0.5435,-0.5432,-0.5418,-0.5415,-0.5402,-0.5402,-0.5401,-0.5407,-0.5389,-0.5401,-0.5402,-0.5403,-0.5427,-0.543,-0.5432,0,0,0,0,0,-0.5481,-0.549,-0.5482,-0.548,-0.5466,-0.5461,-0.5459,-0.5444,-0.5435,-0.5439,-0.5427,-0.5415,-0.5407,-0.5402,-0.54,-0.5407,-0.54,-0.5402,-0.5403,-0.5425,-0.5429,-0.5432,0,0,0,0,0,0,-0.5509,-0.5488,-0.5479,-0.5483,-0.5474,-0.5457,-0.5461,-0.5449,-0.5443,-0.5441,-0.5423,-0.542,-0.5422,-0.5414,-0.5409,-0.5415,-0.5402,-0.5403,-0.542,-0.5423,-0.5426,-0.5428,-0.5389,0,0,0,0,0,-0.5515,-0.5513,-0.5495,-0.55,-0.5496,-0.5479,-0.5476,-0.5465,-0.5455,-0.5452,-0.5441,-0.5432,-0.5427,-0.5425,-0.542,-0.5425,-0.5421,-0.5429,-0.5432,-0.5434,-0.5436,-0.5437,-0.544,-0.5408,-0.5408,-0.5408,0,0,-0.5529,-0.5517,-0.5517,-0.5505,-0.5497,-0.5495,-0.5476,-0.5475,-0.5473,-0.5452,-0.5451,-0.5442,-0.5431,-0.5434,-0.5435,-0.5428,-0.5443,-0.5436,-0.5438,-0.5438,-0.5439,-0.5442,-0.5445,-0.5408,-0.5408,-0.5408,0,0,-0.5552,-0.5543,-0.5546,-0.5538,-0.5525,-0.5514,-0.5514,-0.5499,-0.5492,-0.5491,-0.5474,-0.5472,-0.5465,-0.5457,-0.5452,-0.5471,-0.5459,-0.5469,-0.5485,-0.5486,-0.5489,-0.5491,-0.5497,-0.55,-0.5471,-0.5471,-0.5471,0,-0.557,-0.5566,-0.5549,-0.5548,-0.5543,-0.5523,-0.5526,-0.5519,-0.5505,-0.5502,-0.5495,-0.5484,-0.5475,-0.5476,-0.548,-0.5477,-0.5477,-0.5471,-0.549,-0.5492,-0.5494,-0.55,-0.5502,-0.5472,-0.5472,-0.5472,-0.5472,0,-0.5589,-0.5586,-0.559,-0.5577,-0.5573,-0.5574,-0.5556,-0.5554,-0.5543,-0.5532,-0.553,-0.5518,-0.551,-0.5509,-0.5499,-0.5508,-0.5504,-0.5493,-0.548,-0.5499,-0.5504,-0.5506,-0.5474,-0.5473,-0.5473,-0.5473,0,0,-0.5631,-0.5607,-0.5608,-0.5602,-0.5586,-0.5583,-0.5583,-0.5574,-0.5572,-0.5563,-0.5562,-0.5555,-0.5545,-0.5539,-0.5528,-0.5529,-0.5544,-0.5518,-0.5518,-0.5523,-0.5552,-0.556,-0.5563,-0.5536,-0.5536,-0.5536,-0.5553,0,-0.5651,-0.5649,-0.5633,-0.5636,-0.5632,-0.5612,-0.5612,-0.5601,-0.5591,-0.5586,-0.5575,-0.557,-0.5557,-0.5554,-0.5554,-0.5542,-0.5549,-0.554,-0.5534,-0.5534,-0.5538,-0.5566,-0.5575,-0.5591,-0.5555,-0.5555,-0.5555,0,-0.5676,-0.5667,-0.5669,-0.5652,-0.565,-0.565,-0.564,-0.5636,-0.5623,-0.5615,-0.5608,-0.5595,-0.5593,-0.558,-0.5576,-0.5571,-0.5567,-0.5561,-0.5561,-0.556,-0.5546,-0.5566,-0.5596,-0.5599,-0.5558,-0.5558,-0.5558,0,-0.5705,-0.5694,-0.5694,-0.5689,-0.5669,-0.5669,-0.566,-0.5647,-0.5643,-0.5634,-0.5631,-0.5622,-0.5617,-0.561,-0.5594,-0.5587,-0.5593,-0.5579,-0.5586,-0.5586,-0.5589,-0.5589,-0.5619,-0.5586,-0.5586,-0.5586,-0.5586,0,-0.573,-0.5732,-0.5707,-0.5707,-0.5708,-0.5689,-0.5691,-0.568,-0.5669,-0.5666,-0.5648,-0.5645,-0.5624,-0.562,-0.5607,-0.5606,-0.5604,-0.5597,-0.5594,-0.5599,-0.56,-0.5597,-0.5595,-0.5587,-0.5587,-0.5586,-0.5586,0,-0.5764,-0.5747,-0.5745,-0.5726,-0.5721,-0.5723,-0.5706,-0.5705,-0.5692,-0.5689,-0.5687,-0.5668,-0.5661,-0.5644,-0.5633,-0.5624,-0.5626,-0.562,-0.5631,-0.5629,-0.5637,-0.5636,-0.5666,-0.5669,-0.5634,-0.5635,-0.5635,0,-0.5782,-0.5783,-0.5763,-0.5759,-0.5751,-0.5746,-0.5741,-0.5721,-0.5717,-0.5702,-0.5702,-0.5694,-0.5686,-0.5676,-0.5661,-0.5652,-0.5646,-0.5657,-0.5644,-0.5649,-0.5646,-0.5646,-0.5646,-0.566,-0.566,-0.5661,-0.5661,0,-0.5814,-0.5805,-0.5798,-0.5788,-0.5782,-0.5773,-0.5763,-0.5761,-0.5739,-0.5735,-0.5727,-0.5721,-0.5709,-0.5701,-0.5689,-0.5681,-0.5667,-0.5665,-0.5666,-0.5671,-0.5677,-0.5674,-0.5638,-0.5664,-0.5664,-0.5664,-0.5664,-0.5663,-0.584,-0.584,-0.5825,-0.5818,-0.5808,-0.5799,-0.5796,-0.5783,-0.5776,-0.5765,-0.5753,-0.5747,-0.5733,-0.5716,-0.5708,-0.5702,-0.5695,-0.5697,-0.5698,-0.5698,-0.5701,-0.5678,-0.57,-0.57,-0.57,-0.57,-0.57,0,-0.5872,-0.5861,-0.5854,-0.584,-0.5834,-0.5821,-0.5809,-0.5805,-0.5799,-0.5787,-0.5779,-0.577,-0.5761,-0.5745,-0.5735,-0.5733,-0.5727,-0.5731,-0.5732,-0.573,-0.5707,-0.5707,-0.5737,-0.5737,-0.5737,-0.5737,-0.5737,-0.5737,-0.5888,-0.5886,-0.5875,-0.5867,-0.5856,-0.5849,-0.5844,-0.5835,-0.5825,-0.5815,-0.5808,-0.5797,-0.5783,-0.5771,-0.5763,-0.5758,-0.5755,-0.5762,-0.5755,-0.5735,-0.5731,-0.5728,-0.5728,-0.5761,-0.5761,-0.5778,-0.5778,-0.5778]},{"header":{"parameterUnit":"m.s-1","parameterCategory":1,"la1":30.2991,"la2":30.254,"lo1":-89.0895,"lo2":-89.0444,"dy":0.0017,"dx":0.0017,"nx":28,"ny":28,"refTime":"2025-01-28T03:00:00:Z","depth":0,"parameterNumber":3,"parameterNumberName":"V-component_of_WINDS"},"data":[0,0,0,0,0,0,0,0,0,0,0,0,0,0,0,0,0,0,0,0,0,0,0,0,0,0,0,0,0,0,0,0,0,0,0,0,0,0,0,0,0,0,0,0,0,0,0,0,0,0,0,0,0,0,0,0,0,0,-3.2172,-3.2172,0,-3.2213,-3.2214,-3.2214,-3.2175,-3.2173,-3.2172,-3.217,-3.221,-3.2212,-3.2214,0,0,0,0,0,0,0,0,0,0,0,0,0,-3.2057,-3.2059,-3.2172,-3.2173,-3.2173,-3.2213,-3.2214,-3.2214,-3.2175,-3.2173,-3.2171,-3.2169,-3.2209,-3.2212,-3.2215,0,0,0,0,0,0,0,0,0,0,0,0,0,-3.2103,-3.206,-3.2172,-3.2158,-3.2158,-3.2213,-3.2214,-3.2214,-3.2175,-3.2173,-3.2171,-3.2169,-3.2208,-3.2211,-3.2215,-3.2285,0,0,-3.2227,-3.2228,0,0,0,0,0,0,0,0,-3.2101,-3.2108,-3.216,-3.2159,-3.2159,-3.2186,-3.2187,-3.2238,-3.2176,-3.2169,-3.217,-3.2167,-3.2204,-3.2208,-3.222,-3.2287,-3.2288,-3.2227,-3.2229,-3.2231,-3.2232,0,0,0,0,0,0,0,-3.2098,-3.2106,-3.2188,-3.2161,-3.216,-3.2149,-3.2153,-3.2197,-3.2199,-3.2169,-3.2166,-3.2172,-3.2203,-3.2217,-3.2221,-3.2289,-3.2227,-3.223,-3.2232,-3.2234,-3.2415,-3.2418,0,0,0,0,0,0,-3.2096,-3.2103,-3.2187,-3.2189,-3.2123,-3.2153,-3.2158,-3.218,-3.2198,-3.2199,-3.2174,-3.217,-3.2211,-3.2217,-3.2222,-3.2306,-3.2231,-3.2234,-3.2236,-3.2413,-3.2416,-3.2418,0,0,0,0,0,0,-3.2094,-3.2104,-3.2185,-3.2146,-3.2155,-3.2158,-3.2183,-3.2182,-3.2196,-3.2202,-3.2201,-3.2188,-3.221,-3.2217,-3.227,-3.2306,-3.2236,-3.2239,-3.241,-3.2413,-3.2417,-3.2473,0,0,0,0,0,0,-3.2091,-3.2103,-3.2131,-3.2147,-3.2157,-3.2233,-3.2185,-3.2184,-3.2203,-3.2198,-3.2215,-3.2215,-3.2209,-3.2265,-3.2274,-3.231,-3.2242,-3.2406,-3.2411,-3.2416,-3.2468,-3.2478,-3.2487,0,0,0,0,0,-3.2087,-3.2144,-3.2132,-3.2143,-3.2192,-3.2235,-3.2242,-3.2233,-3.2206,-3.2233,-3.2237,-3.2215,-3.2301,-3.227,-3.228,-3.2318,-3.2404,-3.241,-3.2415,-3.2463,-3.2476,-3.2487,0,0,0,0,0,0,-3.2131,-3.2146,-3.2133,-3.2197,-3.2216,-3.2229,-3.2263,-3.2247,-3.2273,-3.2267,-3.2255,-3.2259,-3.2315,-3.2322,-3.2288,-3.2387,-3.2348,-3.2356,-3.2381,-3.2393,-3.2402,-3.24,-3.2245,0,0,0,0,0,-3.2149,-3.2184,-3.2194,-3.225,-3.226,-3.226,-3.2279,-3.2271,-3.2289,-3.2296,-3.2304,-3.2321,-3.2352,-3.2373,-3.2401,-3.2468,-3.2471,-3.2499,-3.2509,-3.2517,-3.2524,-3.256,-3.2573,-3.2437,-3.2437,-3.2437,0,0,-3.2185,-3.2197,-3.222,-3.2259,-3.2273,-3.2309,-3.2267,-3.2306,-3.2333,-3.2302,-3.2353,-3.2359,-3.2378,-3.2438,-3.2465,-3.2445,-3.2562,-3.2524,-3.253,-3.2533,-3.2567,-3.258,-3.2592,-3.2441,-3.2441,-3.244,0,0,-3.227,-3.2282,-3.2331,-3.2345,-3.2366,-3.2366,-3.2377,-3.2393,-3.2396,-3.2447,-3.2425,-3.2455,-3.2509,-3.2523,-3.2538,-3.2628,-3.2609,-3.2637,-3.2688,-3.2723,-3.2734,-3.2743,-3.2776,-3.2788,-3.2645,-3.2645,-3.2645,0,-3.2312,-3.2366,-3.2357,-3.2399,-3.2417,-3.2391,-3.2439,-3.2453,-3.2482,-3.2495,-3.2473,-3.254,-3.255,-3.2614,-3.2636,-3.2648,-3.2661,-3.2636,-3.2733,-3.2743,-3.2751,-3.2782,-3.2794,-3.2648,-3.2648,-3.2647,-3.2647,0,-3.2417,-3.2455,-3.2491,-3.2521,-3.2543,-3.2588,-3.2585,-3.2608,-3.2598,-3.26,-3.2652,-3.2664,-3.2695,-3.2709,-3.2699,-3.2771,-3.2759,-3.2735,-3.2695,-3.2768,-3.2796,-3.2808,-3.2653,-3.2652,-3.2651,-3.265,0,0,-3.2531,-3.2556,-3.2569,-3.2583,-3.2604,-3.2633,-3.2676,-3.2707,-3.2728,-3.2748,-3.2784,-3.283,-3.2809,-3.2825,-3.2816,-3.2847,-3.2919,-3.282,-3.282,-3.2838,-3.2999,-3.3017,-3.3031,-3.2906,-3.2908,-3.291,-3.2998,0,-3.2617,-3.2694,-3.2687,-3.2759,-3.2794,-3.277,-3.2808,-3.2825,-3.2827,-3.2857,-3.2859,-3.2892,-3.2861,-3.2871,-3.29,-3.2904,-3.2951,-3.2897,-3.2939,-3.294,-3.2936,-3.3046,-3.3065,-3.3147,-3.3009,-3.3011,-3.3012,0,-3.2727,-3.2753,-3.283,-3.2846,-3.286,-3.2895,-3.2923,-3.2951,-3.297,-3.2969,-3.2988,-3.2974,-3.3017,-3.2976,-3.3035,-3.2999,-3.3015,-3.302,-3.3022,-3.3026,-3.2981,-3.3053,-3.3173,-3.3186,-3.303,-3.3028,-3.3027,0,-3.2804,-3.2857,-3.291,-3.2922,-3.2943,-3.2967,-3.2977,-3.2993,-3.3012,-3.3036,-3.3048,-3.3077,-3.3093,-3.3115,-3.3109,-3.3079,-3.3169,-3.3127,-3.317,-3.317,-3.319,-3.3189,-3.3315,-3.32,-3.32,-3.3199,-3.3199,0,-3.29,-3.2948,-3.2945,-3.2977,-3.303,-3.3021,-3.3073,-3.3079,-3.3094,-3.3126,-3.3107,-3.3137,-3.3128,-3.3158,-3.3153,-3.3203,-3.321,-3.321,-3.3209,-3.3213,-3.3213,-3.3224,-3.3218,-3.3203,-3.3202,-3.3201,-3.3201,0,-3.2995,-3.2994,-3.3051,-3.3066,-3.307,-3.3109,-3.3121,-3.3151,-3.3152,-3.3194,-3.3203,-3.3204,-3.3239,-3.3235,-3.3273,-3.327,-3.3332,-3.3323,-3.3326,-3.3325,-3.3367,-3.3363,-3.3505,-3.3523,-3.3396,-3.3397,-3.3398,0,-3.3057,-3.3093,-3.3113,-3.3134,-3.3145,-3.3179,-3.3199,-3.3191,-3.3213,-3.3236,-3.3264,-3.3297,-3.3323,-3.3379,-3.3383,-3.3412,-3.3404,-3.3451,-3.3408,-3.3411,-3.3405,-3.3404,-3.3407,-3.346,-3.3462,-3.3463,-3.3464,0,-3.3167,-3.3166,-3.3196,-3.3226,-3.3251,-3.3274,-3.3295,-3.3313,-3.3307,-3.3332,-3.3368,-3.3388,-3.3428,-3.3461,-3.3488,-3.3497,-3.348,-3.3477,-3.3489,-3.3493,-3.3494,-3.3495,-3.335,-3.3474,-3.3473,-3.3472,-3.3472,-3.3472,-3.3248,-3.3279,-3.3298,-3.3332,-3.3348,-3.3368,-3.3397,-3.3402,-3.3432,-3.3465,-3.3458,-3.3498,-3.3515,-3.3551,-3.3562,-3.3593,-3.3576,-3.3592,-3.3596,-3.36,-3.3606,-3.3489,-3.3598,-3.3597,-3.3597,-3.3597,-3.3597,0,-3.3358,-3.3369,-3.3401,-3.3431,-3.3458,-3.344,-3.3463,-3.3486,-3.3522,-3.354,-3.3566,-3.3607,-3.3639,-3.3646,-3.3676,-3.3699,-3.3692,-3.3708,-3.3706,-3.3708,-3.3619,-3.3607,-3.3713,-3.3713,-3.3713,-3.3713,-3.3713,-3.3713,-3.3419,-3.3471,-3.3472,-3.3531,-3.3541,-3.3582,-3.3596,-3.3614,-3.3629,-3.3676,-3.3703,-3.3707,-3.372,-3.3751,-3.3779,-3.378,-3.3793,-3.3811,-3.3809,-3.3726,-3.3715,-3.3703,-3.3692,-3.3814,-3.3814,-3.3896,-3.3897,-3.3897]}]]